Retour au catalogue

CZ-6A DEB

ActifSSO
NORAD 54503·DEBRIS·🇨🇳 China

Lancé Nov 11, 2022 depuis Taiyuan Satellite Launch Center

Loading…

Prochains Passages (prochaines 24 heures)

TLE

FraisSource: Space-Track

Époque: Sep 14, 2026, 08:53 UTC

1 54503U 22151JF  26257.37020055  .00000444  00000-0  26089-3 0  9992
2 54503  98.7798 242.6818 0051454  89.5790 271.1278 14.12389887197438

Suivez CZ-6A DEB en temps réel avec AllMySat

Download on the App Store